Flag for Kazakhstan Weather past 2 weeks in Astana, Kazakhstan

Now
-17 °F

Clear.


Feels Like: -27 °F
Forecast: -13 / 5 °F
Wind: 3 mph from South

Location: Astana

Current Time: Jan 29, 2015 at 4:15:38 AM

Latest Report: Jan 29, 2015 at 3:30 AM


Visibility: 10 mi

Pressure: 30.57 "Hg

Humidity: 69%

Dew point: -24 °F

Location of AstanaLocation

Historic Weather in Astana — Graph

°F

Astana temperature yesterday

Maximum temperature yesterday: 1 °F (at 4:00 PM)
Minimum temperature yesterday: -18 °F (at 2:30 AM)
Average temperature yesterday: -13 °F

Past Weeks' High & Low Weather Summary

 TemperatureHumidityPressure
High30 °F (Jan 16, 2:30 PM)100% (Jan 16, 4:30 AM)30.89 "Hg (Jan 16, 4:30 AM)
Low-35 °F (Jan 25, 2:30 AM)59% (Jan 26, 6:00 AM)29.83 "Hg (Jan 20, 10:30 PM)
Average1 °F80%30.32 "Hg
* Reported Jan 14 3:00 AM — Jan 29 3:00 AM, Astana, Weather by CustomWeather, © 2014

Note: Actual official high and low records may vary slightly from our data, if they occured in-between our weather recording intervals... More about our weather records

Advertising

Astana weather history for previous 24 hours

 ConditionsComfort  
Time TempWeatherWind HumidityBarometerVisibility
3:00 AM
Jan 29
-15 °FClear.1 mph69%30.57 "Hg10 mi
2:30 AM-17 °FClear.3 mph69%30.57 "Hg10 mi
2:00 AM-17 °FClear.3 mph76%30.57 "Hg10 mi
1:30 AM-17 °FClear.3 mph69%30.57 "Hg10 mi
1:00 AM-17 °FClear.6 mph69%30.57 "Hg10 mi
12:30 AM-17 °FClear.3 mph76%30.57 "Hg10 mi
12:00 AM-17 °FClear.6 mph76%30.57 "Hg10 mi
11:30 PM
Jan 28
-17 °FClear.3 mph69%30.60 "Hg10 mi
11:00 PM-17 °FClear.6 mph69%30.60 "Hg10 mi
10:30 PM-17 °FClear.3 mph76%30.60 "Hg10 mi
10:00 PM-15 °FClear.6 mph76%30.60 "Hg10 mi
9:30 PM-15 °FClear.6 mph76%30.60 "Hg10 mi
9:00 PM-15 °FClear.3 mph76%30.60 "Hg10 mi
8:30 PM-13 °FClear.6 mph76%30.60 "Hg10 mi
8:00 PM-13 °FClear.6 mph76%30.60 "Hg10 mi
7:30 PM-11 °FClear.8 mph70%30.60 "Hg10 mi
7:00 PM-11 °FClear.8 mph70%30.60 "Hg10 mi
6:30 PM-9 °FSunny.10 mph70%30.60 "Hg10 mi
6:00 PM-8 °FSunny.8 mph70%30.60 "Hg10 mi
5:30 PM-6 °FSunny.8 mph64%30.60 "Hg10 mi
5:00 PM-4 °FSunny.8 mph65%30.60 "Hg10 mi
4:30 PM-2 °FSunny.8 mph65%30.60 "Hg10 mi
4:00 PM1 °FSunny.8 mph65%30.60 "Hg10 mi
3:30 PM0 °FSunny.6 mph65%30.60 "Hg10 mi
3:00 PM0 °FSunny.6 mph65%30.60 "Hg10 mi
2:30 PM0 °FSunny.10 mph65%30.60 "Hg10 mi
2:00 PM-4 °FSunny.6 mph65%30.63 "Hg10 mi
1:30 PM-6 °FSunny.8 mph64%30.63 "Hg10 mi
1:00 PM-8 °FSunny.8 mph64%30.63 "Hg10 mi
12:30 PM-9 °FSunny.8 mph70%30.63 "Hg10 mi
12:00 PM-11 °FSunny.8 mph70%30.63 "Hg10 mi
11:30 AM-15 °FSunny.6 mph69%30.63 "Hg10 mi
11:00 AM-17 °FSunny.6 mph69%30.63 "Hg10 mi
10:30 AM-17 °FSunny.8 mph69%30.63 "Hg10 mi
10:00 AM-18 °FSunny.6 mph69%30.63 "Hg10 mi
9:30 AM-18 °FClear.6 mph69%30.63 "Hg10 mi
9:00 AM-18 °FClear.8 mph69%30.63 "Hg10 mi
8:30 AM-18 °FClear.6 mph69%30.63 "Hg10 mi
8:00 AM-18 °FClear.8 mph69%30.63 "Hg10 mi
7:30 AM-18 °FClear.6 mph69%30.63 "Hg10 mi
7:00 AM-18 °FClear.8 mph69%30.63 "Hg10 mi
6:30 AM-18 °FClear.8 mph69%30.63 "Hg10 mi
6:00 AM-18 °FClear.10 mph75%30.63 "Hg10 mi
5:30 AM-18 °FClear.8 mph69%30.63 "Hg10 mi
5:00 AM-18 °FClear.8 mph75%30.63 "Hg10 mi
4:30 AM-18 °FClear.8 mph75%30.63 "Hg10 mi
4:00 AM-18 °FClear.6 mph69%30.63 "Hg10 mi
Weather by CustomWeather, © 2014

See weather overviewHow to use our weather pages